Theta_e
321 320 320 323 323 323 323 323 323 323 323 324 324 325 324 324 322 325 321 328 334 341 341 328 328 327 330 328 331 332 316 313 313 315 318 327 325 331 332 330 332 334 335 336 337
320 320 319 320 322 322 322 322 323 323 323 324 324 324 324 324 326 322 331 341 339 344 329 327 326 330 329 327 329 322 318 316 322 322 323 326 327 328 327 328 328 330 335 337 332
319 319 319 319 320 321 322 322 322 323 324 324 323 324 324 324 325 322 341 341 343 341 329 328 327 330 323 327 326 324 318 323 326 327 327 327 327 330 326 323 328 327 331 331 326
319 319 319 318 318 320 321 322 322 323 323 323 323 323 324 330 313 327 343 342 343 332 325 323 326 324 320 320 326 321 325 327 327 329 328 326 330 326 328 327 332 333 334 327 321
318 319 318 318 318 318 320 321 321 322 322 322 322 323 326 321 323 329 345 341 328 326 327 326 324 324 318 322 325 324 326 329 330 330 329 329 326 325 325 330 333 333 331 321 321
318 318 317 317 316 317 318 320 320 320 321 322 322 321 326 315 332 331 329 327 328 327 330 330 326 327 323 321 322 325 327 328 329 328 328 325 325 326 325 331 330 329 326 322 318
318 318 317 317 316 316 317 319 319 320 321 322 323 325 322 320 331 331 327 327 327 327 328 330 330 327 326 323 328 327 323 326 327 328 325 327 321 320 326 329 325 324 324 322 321
317 317 316 317 316 317 318 319 318 320 321 323 323 326 319 328 331 327 327 325 326 328 329 331 332 327 326 329 326 323 322 316 325 326 327 325 315 322 326 324 321 323 322 320 318
317 317 316 316 316 317 318 317 321 321 322 323 325 329 318 326 323 326 327 322 324 327 330 330 330 325 326 321 312 316 311 312 319 325 325 323 318 323 327 325 321 322 323 322 322
317 316 316 315 315 315 316 317 321 321 324 327 329 322 321 317 324 325 327 325 322 324 325 325 324 316 317 315 305 308 309 311 311 322 322 318 318 322 323 323 321 322 323 321 323
316 316 316 315 314 314 319 325 324 324 326 317 317 319 320 325 326 322 325 325 326 322 316 320 313 310 315 316 315 314 312 310 316 320 318 316 318 318 322 323 322 322 322 322 322
315 315 316 315 314 315 321 323 320 322 314 319 320 320 324 325 318 320 324 319 318 313 315 313 309 317 317 317 315 314 311 310 316 319 317 317 316 318 321 321 321 321 322 323 322
314 315 315 315 314 318 328 323 326 323 316 315 319 319 320 322 317 317 320 320 315 312 311 309 312 317 315 315 314 313 310 312 310 317 318 315 313 314 319 319 320 321 322 322 320
314 314 315 314 314 328 324 326 325 324 309 310 313 318 321 321 315 323 322 319 315 310 312 311 316 314 314 313 315 309 317 314 312 310 303 313 302 313 315 315 316 316 318 320 321
313 314 314 310 325 323 325 326 325 323 299 312 313 323 321 317 317 317 323 318 311 311 312 310 313 313 311 315 317 312 318 315 313 309 307 311 306 310 314 310 312 315 317 318 321
313 313 313 320 327 326 325 326 327 308 300 309 315 312 312 315 314 317 317 319 318 313 314 313 320 316 315 318 317 318 315 314 314 309 302 308 306 306 307 309 310 313 315 318 319
313 312 313 324 325 326 329 324 309 302 314 309 308 311 311 310 312 312 311 312 309 306 307 311 314 317 318 315 318 317 312 302 300 300 301 310 306 308 311 313 311 312 313 314 317
311 310 315 322 327 325 324 317 305 308 309 314 311 310 308 312 312 313 312 310 314 313 309 306 304 315 317 314 312 313 310 302 294 297 299 309 303 305 314 315 314 315 314 315 315
309 323 324 327 327 328 320 309 307 312 315 313 313 308 307 312 313 313 312 311 314 316 309 308 307 315 315 316 314 308 306 312 304 303 299 304 305 310 312 311 311 312 313 313 315
327 320 321 329 330 328 315 306 315 319 319 318 307 311 307 310 309 311 312 315 313 316 318 314 308 314 315 314 314 312 312 302 304 297 295 301 304 301 306 307 309 309 311 312 314
327 315 326 327 329 319 309 313 317 319 320 316 312 310 311 312 313 311 312 314 314 314 317 315 311 309 312 310 307 307 307 308 307 304 296 294 300 310 309 310 310 310 312 314 315
325 312 326 328 314 316 312 317 310 317 318 318 320 318 315 315 313 313 312 315 315 315 312 315 311 304 305 311 311 309 307 308 301 300 303 301 300 312 311 312 313 311 310 312 313
321 320 326 326 311 312 319 316 316 316 316 315 313 316 316 313 309 311 313 316 316 317 316 317 309 303 304 309 311 307 307 308 308 307 300 298 301 313 312 310 310 310 309 311 308
322 311 317 320 321 321 318 315 314 317 316 318 315 317 315 313 315 312 314 315 317 316 318 320 311 306 301 305 308 303 305 306 305 301 302 301 303 308 308 308 308 308 309 307 308
324 320 321 310 314 320 321 318 314 312 317 318 316 315 314 311 312 311 316 315 316 313 316 316 308 308 306 306 306 304 304 305 304 304 300 303 303 307 307 308 309 308 306 306 307
327 322 319 320 320 321 313 317 313 314 316 315 315 312 312 313 315 312 314 316 314 317 314 314 310 309 304 305 305 303 304 305 305 305 304 304 303 311 311 310 308 305 306 306 307
338 337 324 312 317 318 317 318 316 318 317 318 316 316 315 317 320 324 325 323 319 315 312 312 311 307 303 306 304 302 306 305 306 307 306 301 307 310 307 307 305 305 306 306 307
Wind_Speed
12 11 12 11 10 10 10 10 9 9 9 9 9 9 9 9 11 10 13 7 8 17 8 9 10 10 13 3 4 11 10 7 9 7 12 10 10 2 2 9 9 9 11 20 13
11 11 10 11 11 10 9 9 9 10 9 8 8 9 9 8 13 14 6 15 22 15 14 11 8 12 7 5 3 11 3 16 13 5 14 9 6 6 7 12 9 12 15 17 12
11 10 9 10 11 9 9 9 9 9 8 7 9 9 9 11 12 5 8 15 11 13 11 10 3 15 6 3 5 14 13 11 11 8 6 10 8 3 5 13 6 14 17 16 13
12 12 11 10 11 12 10 10 9 9 9 8 9 9 8 10 4 10 11 13 12 14 11 8 11 15 3 7 6 10 9 11 9 6 5 4 9 9 10 6 8 14 16 16 14
12 12 13 11 12 11 11 10 10 9 9 8 8 7 8 11 4 11 9 11 13 13 11 11 14 5 2 6 9 11 8 10 9 7 7 5 7 10 8 8 10 14 15 14 14
12 12 12 11 11 12 12 10 10 9 10 9 7 5 7 15 10 16 14 14 13 13 9 8 6 8 7 3 5 8 10 12 9 8 7 7 10 8 7 9 11 13 12 12 11
12 12 12 11 11 12 12 11 11 11 11 9 5 6 11 4 9 13 12 12 6 7 8 2 3 8 6 6 5 11 11 10 10 8 7 5 8 6 9 10 9 10 9 10 9
12 12 12 11 11 12 13 12 13 12 10 7 5 5 6 3 9 12 12 6 6 5 7 3 8 2 7 4 8 16 14 7 12 7 6 7 6 9 8 10 10 8 9 11 10
13 12 12 12 11 13 13 14 9 3 6 8 8 10 8 4 11 12 9 8 8 6 4 5 12 10 9 11 3 17 5 2 10 2 3 10 8 9 10 10 13 10 9 9 13
14 13 11 11 12 13 14 8 2 5 6 8 10 9 11 14 13 10 8 6 9 9 10 12 14 13 9 20 4 9 12 7 9 9 7 4 6 7 6 7 6 6 8 11 11
14 13 12 11 11 12 12 6 8 8 13 10 15 19 17 14 12 11 9 11 12 12 15 14 12 8 27 10 10 11 11 8 11 6 11 5 9 8 6 6 6 5 5 6 2
14 14 13 11 11 11 9 10 7 11 12 5 4 7 17 16 14 13 11 13 11 15 6 12 10 1 8 7 9 12 12 13 5 4 5 8 10 6 6 5 2 4 7 8 9
14 14 13 11 10 6 10 2 7 7 10 13 11 11 10 13 14 15 14 15 10 15 12 12 9 3 6 11 9 14 3 13 16 6 12 8 12 9 7 5 3 1 4 7 11
14 15 13 13 4 3 5 2 7 4 7 16 10 9 14 14 15 14 16 16 14 12 12 10 7 6 13 13 10 16 4 10 13 8 6 12 9 10 12 8 4 2 3 6 5
15 15 14 7 11 7 6 5 1 5 8 19 19 10 14 18 14 12 12 16 15 18 5 12 7 8 14 9 9 17 11 13 15 18 10 14 10 10 3 10 5 3 2 7 4
15 15 14 7 7 4 6 5 4 9 3 8 10 11 15 12 15 7 10 14 19 16 12 16 4 5 12 5 6 6 12 15 13 8 14 6 10 12 6 4 8 9 7 7 9
16 14 10 9 1 3 3 7 8 11 7 10 14 17 17 13 18 11 13 13 13 13 16 14 10 4 7 10 8 8 14 13 9 6 8 10 8 9 7 11 9 4 8 8 9
15 12 11 9 6 7 6 10 12 7 8 14 11 14 16 19 14 11 8 14 8 13 16 17 13 13 5 6 12 15 10 10 17 13 11 13 2 9 14 12 7 3 3 8 10
14 7 7 6 5 5 10 12 6 8 3 9 11 11 15 10 8 12 12 10 7 5 13 15 3 6 1 4 6 11 9 10 11 18 15 8 6 10 9 9 3 2 4 6 7
7 7 9 6 4 8 9 13 2 4 5 9 13 12 16 16 10 10 11 3 4 4 6 5 12 5 9 5 10 8 11 10 8 9 11 8 7 8 7 6 4 2 4 11 15
8 6 9 7 6 8 9 4 1 5 4 7 12 6 14 2 7 10 2 8 2 1 5 7 3 3 6 3 10 8 7 3 4 8 9 12 10 5 7 4 5 10 10 8 9
8 6 8 6 9 9 7 0 2 5 1 1 6 8 1 3 4 5 3 8 0 2 4 6 6 10 5 5 4 3 7 8 8 2 9 6 7 6 5 8 11 12 7 5 8
7 3 5 7 9 9 4 4 1 5 4 5 4 5 1 1 3 4 4 4 1 4 5 5 2 9 13 11 5 6 3 5 6 7 10 8 7 6 8 9 6 5 8 10 8
6 5 7 8 8 12 9 8 9 3 7 5 3 3 2 2 2 3 9 4 4 8 2 2 4 8 11 9 5 3 1 2 5 8 11 9 6 10 6 2 2 6 8 8 7
6 2 4 9 9 4 3 10 8 5 4 8 7 4 4 4 3 3 8 8 8 5 2 4 6 6 4 4 5 3 4 5 8 7 7 12 9 11 6 8 4 6 7 8 9
7 4 4 3 2 7 5 8 8 4 5 8 3 1 2 4 7 9 5 8 5 5 3 1 2 6 4 2 5 6 3 3 3 6 8 7 3 5 3 5 7 6 7 9 10
2 2 7 6 7 10 11 11 8 9 5 8 4 3 7 7 7 10 11 8 5 2 4 3 1 6 6 1 6 10 9 5 4 5 5 9 8 5 6 7 6 6 7 10 11
Wind_Direction
351 344 339 339 333 332 328 322 314 302 296 299 303 297 301 307 290 220 214 110 160 186 252 195 212 202 223 152 270 36 355 89 102 97 111 140 138 94 170 110 46 45 59 126 147
345 339 335 332 329 328 320 313 306 299 302 305 303 299 301 302 250 209 110 154 156 186 205 204 184 213 185 149 188 78 305 61 47 51 123 155 103 140 185 131 112 100 108 128 146
337 333 329 327 322 322 321 317 307 302 306 309 301 297 294 286 238 144 187 152 176 197 236 254 264 261 151 23 9 93 78 98 65 57 102 108 112 102 293 91 97 144 140 139 133
335 332 332 330 325 327 326 318 311 311 309 308 299 296 308 249 211 100 170 165 184 218 243 230 235 253 156 87 69 105 52 89 99 89 120 81 101 66 42 55 91 130 145 139 136
335 334 329 332 324 321 319 319 311 310 304 296 291 305 277 219 70 132 164 171 193 231 232 215 227 296 23 85 134 109 97 100 121 114 87 122 53 95 82 80 100 110 117 112 119
335 333 327 326 322 317 316 311 304 300 291 283 283 310 244 243 101 148 166 176 225 234 219 258 16 2 64 28 341 101 142 138 137 126 137 149 140 220 110 119 122 132 138 131 132
333 331 325 321 320 314 308 301 294 283 275 266 260 265 254 43 141 161 168 197 220 268 247 313 335 285 265 130 145 152 152 151 152 154 146 147 144 90 136 138 137 147 140 149 152
330 328 323 321 318 309 305 301 291 277 257 240 213 239 237 97 161 170 191 192 221 228 291 266 254 295 279 119 183 214 104 247 140 167 116 252 102 128 159 148 161 161 155 163 177
328 325 324 321 317 310 307 304 299 262 207 181 208 227 177 159 185 184 205 203 202 222 228 272 257 249 207 186 9 303 180 54 131 140 110 233 107 135 177 184 168 170 183 180 199
324 323 320 317 314 306 303 285 1 158 210 210 268 231 161 179 166 173 208 235 212 211 212 230 232 92 358 287 69 347 346 141 78 120 222 191 89 149 174 199 229 178 185 189 194
322 322 318 315 311 306 296 199 207 189 214 215 172 228 165 123 144 191 191 219 221 214 245 204 270 141 257 18 347 314 315 305 86 155 275 30 140 169 194 236 247 250 236 249 249
322 319 314 313 309 302 268 248 30 342 209 216 108 288 149 159 179 179 191 229 207 250 196 257 251 75 7 339 311 290 292 102 223 133 250 153 156 191 176 218 251 326 186 211 216
322 317 310 310 315 258 249 2 321 342 253 173 190 196 187 188 195 175 201 221 249 255 254 274 296 91 309 291 263 312 239 335 332 130 245 276 189 158 160 216 213 117 300 194 240
321 316 310 313 285 200 198 87 294 300 259 157 195 222 178 202 222 212 191 241 249 256 305 278 12 321 294 283 318 306 341 316 297 271 315 197 291 144 165 165 117 107 157 233 216
320 314 305 296 317 233 37 348 108 212 243 155 187 180 206 209 222 203 218 242 252 278 207 273 302 299 303 5 337 298 333 311 299 289 265 219 288 126 129 95 110 140 269 38 31
317 311 313 210 233 342 312 130 222 223 197 154 143 188 217 220 237 236 205 226 267 287 259 264 33 314 326 321 320 335 274 269 261 277 249 73 204 125 128 107 89 54 34 15 20
314 302 284 313 283 26 313 214 213 253 120 143 175 192 201 192 223 208 205 209 228 225 244 254 270 88 295 263 206 257 271 291 285 181 293 196 255 78 106 79 74 61 29 39 354
313 297 201 265 317 288 253 240 259 209 181 155 188 186 210 197 196 198 229 236 212 282 283 283 192 236 148 294 317 301 317 305 298 307 342 165 97 103 82 83 73 48 353 25 6
310 200 229 187 236 256 258 242 236 176 80 181 209 192 216 178 263 212 239 264 42 310 290 305 72 155 263 314 309 329 273 359 305 266 248 71 61 146 135 112 134 58 27 15 356
267 208 186 143 190 252 261 280 359 34 302 265 199 204 214 202 203 202 196 127 194 286 303 344 295 139 110 273 222 286 336 291 242 285 308 189 158 58 150 128 111 196 350 23 26
248 216 110 194 212 237 239 239 77 62 265 294 251 191 267 145 243 239 208 95 293 53 320 343 250 162 215 204 348 301 278 306 299 286 309 297 98 56 85 85 7 45 30 13 348
272 226 134 187 218 230 243 80 299 99 59 214 331 7 313 357 260 288 290 41 359 298 350 51 314 288 4 57 309 313 338 297 295 62 307 302 82 78 68 66 30 359 59 333 320
254 105 155 221 234 199 129 170 327 142 40 53 114 55 347 93 277 281 113 48 202 27 29 15 280 283 216 173 193 264 39 299 271 278 267 309 104 140 93 66 35 357 328 326 3
276 170 152 213 272 297 165 178 149 85 99 99 63 290 319 320 279 285 117 94 60 83 360 301 288 279 309 11 351 255 253 314 287 284 347 28 103 114 96 55 351 303 326 338 332
249 45 19 194 202 240 223 161 216 154 188 111 255 326 326 288 284 231 129 146 164 170 118 345 278 283 359 331 326 357 306 323 330 344 303 359 334 80 62 338 334 341 334 329 334
314 327 185 99 302 225 155 188 182 109 184 174 235 132 290 303 335 308 188 205 194 169 68 169 272 282 227 242 284 280 256 292 251 321 290 300 312 15 350 281 349 328 326 320 340
32 233 277 120 201 231 176 162 174 129 58 67 100 78 54 18 1 14 31 27 36 173 138 216 69 258 257 72 296 253 212 234 310 258 301 316 40 315 325 6 330 321 333 343 341